[[{"header":{"parameterUnit":"m.s-1","parameterCategory":1,"la1":30.2991,"la2":30.254,"lo1":-89.0895,"lo2":-89.0444,"dy":0.0017,"dx":0.0017,"nx":28,"ny":28,"refTime":"2023-08-24T09:00:00:Z","depth":0,"parameterNumber":2,"parameterNumberName":"U-component_of_WINDS"},"data":[0,0,0,0,0,0,0,0,0,0,0,0,0,0,0,0,0,0,0,0,0,0,0,0,0,0,0,0,0,0,0,0,0,0,0,0,0,0,0,0,0,0,0,0,0,0,0,0,0,0,0,0,0,0,0,0,0,0,0.8102,0.8102,0,0.8118,0.8118,0.8118,0.8131,0.8131,0.8131,0.8132,0.8147,0.8147,0.8147,0,0,0,0,0,0,0,0,0,0,0,0,0,0.8081,0.8081,0.8102,0.8102,0.8103,0.8118,0.8118,0.8118,0.8131,0.8131,0.8131,0.8132,0.8146,0.8147,0.8147,0,0,0,0,0,0,0,0,0,0,0,0,0,0.8093,0.8081,0.8102,0.8111,0.8112,0.8118,0.8118,0.8118,0.8131,0.8131,0.8132,0.8132,0.8146,0.8147,0.8147,0.8145,0,0,0.8148,0.8149,0,0,0,0,0,0,0,0,0.8092,0.8093,0.8109,0.811,0.8111,0.8123,0.8116,0.8127,0.8131,0.8124,0.8132,0.8132,0.8138,0.8139,0.8142,0.8146,0.8147,0.8148,0.8149,0.8149,0.8149,0,0,0,0,0,0,0,0.8091,0.8093,0.8108,0.811,0.8111,0.8113,0.8115,0.8118,0.813,0.8124,0.8125,0.8127,0.8139,0.8142,0.8142,0.8147,0.8148,0.8149,0.8149,0.8149,0.8149,0.8149,0,0,0,0,0,0,0.8089,0.8092,0.8108,0.8109,0.8102,0.8113,0.8116,0.8119,0.813,0.8132,0.8127,0.8128,0.8141,0.8142,0.8143,0.8141,0.8149,0.8149,0.8149,0.8149,0.8149,0.8149,0,0,0,0,0,0,0.8089,0.809,0.8107,0.8101,0.8103,0.8114,0.8117,0.8119,0.8122,0.8132,0.8134,0.8128,0.8141,0.8142,0.8144,0.8141,0.8149,0.815,0.8149,0.8149,0.8149,0.8137,0,0,0,0,0,0,0.8088,0.809,0.809,0.8101,0.8103,0.8109,0.8117,0.8119,0.8122,0.8124,0.8133,0.8134,0.8141,0.8144,0.8145,0.8142,0.815,0.815,0.8149,0.8149,0.8137,0.8136,0.8135,0,0,0,0,0,0.8087,0.8087,0.809,0.8092,0.8104,0.8109,0.811,0.8119,0.8122,0.8122,0.8128,0.8134,0.8142,0.8144,0.8145,0.8143,0.815,0.8149,0.8149,0.8138,0.8136,0.8135,0,0,0,0,0,0,0.8076,0.8088,0.8092,0.8095,0.8101,0.8111,0.8111,0.8117,0.8121,0.8122,0.8132,0.8133,0.8134,0.8139,0.8141,0.8141,0.8147,0.8146,0.8138,0.8136,0.8135,0.8134,0.815,0,0,0,0,0,0.8073,0.8077,0.8088,0.8089,0.8091,0.8101,0.8103,0.8109,0.8115,0.8118,0.8124,0.8129,0.8133,0.8135,0.8139,0.8138,0.8139,0.8137,0.8135,0.8134,0.8134,0.8132,0.8131,0.8147,0.8147,0.8147,0,0,0.8069,0.8076,0.8078,0.8087,0.8092,0.8094,0.8103,0.8106,0.8107,0.8118,0.812,0.8125,0.8131,0.8132,0.8132,0.8135,0.8129,0.8133,0.8132,0.8133,0.8132,0.813,0.8129,0.8146,0.8146,0.8147,0,0,0.8062,0.8068,0.8069,0.8074,0.8082,0.8087,0.8088,0.8097,0.81,0.8102,0.811,0.8112,0.8118,0.8122,0.8124,0.8117,0.8122,0.8118,0.8111,0.8109,0.8108,0.8107,0.8103,0.8102,0.8117,0.8117,0.8117,0,0.8055,0.806,0.8069,0.8071,0.8074,0.8084,0.8084,0.8088,0.8096,0.8098,0.8101,0.8108,0.8113,0.8114,0.8112,0.8114,0.8114,0.8117,0.8108,0.8107,0.8106,0.8102,0.8101,0.8117,0.8117,0.8117,0.8117,0,0.8051,0.8054,0.8054,0.8062,0.8065,0.8066,0.8074,0.8076,0.8081,0.8086,0.8087,0.8093,0.8098,0.8099,0.8104,0.81,0.8101,0.8106,0.8112,0.8103,0.81,0.8099,0.8116,0.8116,0.8116,0.8116,0,0,0.8039,0.805,0.8049,0.8052,0.806,0.8063,0.8064,0.8068,0.8069,0.8074,0.8074,0.8078,0.8082,0.8085,0.8091,0.8089,0.8081,0.8094,0.8094,0.8091,0.8076,0.8071,0.807,0.8085,0.8085,0.8085,0.8075,0,0.8033,0.8035,0.8042,0.8043,0.8045,0.8053,0.8053,0.8058,0.8062,0.8064,0.8069,0.8071,0.8077,0.8079,0.8078,0.8083,0.8078,0.8084,0.8084,0.8084,0.8082,0.8068,0.8064,0.8055,0.8074,0.8074,0.8073,0,0.8026,0.803,0.803,0.8037,0.8038,0.8039,0.8042,0.8044,0.8049,0.8052,0.8055,0.806,0.806,0.8066,0.8066,0.8069,0.807,0.8072,0.8072,0.8072,0.8078,0.8067,0.8052,0.805,0.8072,0.8072,0.8072,0,0.8016,0.8021,0.8022,0.8024,0.8032,0.8031,0.8035,0.8039,0.8041,0.8044,0.8045,0.8048,0.8049,0.8051,0.8057,0.8061,0.8055,0.8062,0.8057,0.8057,0.8056,0.8056,0.804,0.8057,0.8057,0.8057,0.8057,0,0.8008,0.8008,0.8017,0.8017,0.8016,0.8024,0.8023,0.8026,0.803,0.8031,0.8038,0.8038,0.8046,0.8046,0.8051,0.8049,0.805,0.8052,0.8053,0.8051,0.805,0.8051,0.8052,0.8057,0.8057,0.8057,0.8057,0,0.7997,0.8003,0.8004,0.801,0.8012,0.8011,0.8016,0.8016,0.8021,0.8021,0.8021,0.8028,0.8029,0.8035,0.8037,0.804,0.8036,0.8039,0.8035,0.8035,0.803,0.803,0.8013,0.8011,0.8031,0.803,0.803,0,0.7991,0.7991,0.7997,0.7998,0.8001,0.8002,0.8003,0.801,0.8011,0.8015,0.8014,0.8015,0.8017,0.8018,0.8022,0.8024,0.8026,0.802,0.8026,0.8024,0.8025,0.8024,0.8024,0.8019,0.8018,0.8018,0.8018,0,0.7981,0.7983,0.7985,0.7987,0.7989,0.7991,0.7993,0.7993,0.8001,0.8001,0.8002,0.8003,0.8005,0.8005,0.8007,0.801,0.8014,0.8016,0.8015,0.8012,0.8009,0.801,0.803,0.8016,0.8016,0.8017,0.8017,0.8017,0.7972,0.7971,0.7975,0.7976,0.7978,0.798,0.798,0.7984,0.7984,0.7986,0.799,0.799,0.7993,0.7996,0.7997,0.7997,0.8,0.7998,0.7998,0.7997,0.7995,0.801,0.7997,0.7997,0.7997,0.7997,0.7997,0,0.7961,0.7963,0.7964,0.7967,0.7967,0.7972,0.7974,0.7974,0.7974,0.7976,0.7977,0.7977,0.7977,0.7981,0.7982,0.798,0.7982,0.798,0.798,0.798,0.7993,0.7994,0.7978,0.7978,0.7978,0.7978,0.7978,0.7978,0.7955,0.7954,0.7956,0.7956,0.7958,0.7958,0.7959,0.796,0.7961,0.7961,0.7961,0.7963,0.7966,0.7966,0.7966,0.7967,0.7967,0.7964,0.7965,0.7977,0.7979,0.7981,0.7982,0.7964,0.7964,0.7952,0.7952,0.7952]},{"header":{"parameterUnit":"m.s-1","parameterCategory":1,"la1":30.2991,"la2":30.254,"lo1":-89.0895,"lo2":-89.0444,"dy":0.0017,"dx":0.0017,"nx":28,"ny":28,"refTime":"2023-08-24T09:00:00:Z","depth":0,"parameterNumber":3,"parameterNumberName":"V-component_of_WINDS"},"data":[0,0,0,0,0,0,0,0,0,0,0,0,0,0,0,0,0,0,0,0,0,0,0,0,0,0,0,0,0,0,0,0,0,0,0,0,0,0,0,0,0,0,0,0,0,0,0,0,0,0,0,0,0,0,0,0,0,0,0.5022,0.5022,0,0.5002,0.5002,0.5002,0.498,0.498,0.498,0.4979,0.4959,0.4958,0.4958,0,0,0,0,0,0,0,0,0,0,0,0,0,0.5039,0.5039,0.5022,0.5022,0.5021,0.5002,0.5002,0.5002,0.498,0.498,0.498,0.4979,0.4959,0.4958,0.4958,0,0,0,0,0,0,0,0,0,0,0,0,0,0.5027,0.5039,0.5022,0.5009,0.5007,0.5002,0.5002,0.5002,0.4981,0.498,0.498,0.4979,0.4959,0.4959,0.4958,0.4965,0,0,0.4957,0.4957,0,0,0,0,0,0,0,0,0.5027,0.5026,0.5011,0.5009,0.5008,0.4993,0.5,0.4989,0.4981,0.4991,0.4979,0.4979,0.4971,0.4969,0.4966,0.4964,0.4963,0.4957,0.4957,0.4956,0.4956,0,0,0,0,0,0,0,0.5028,0.5027,0.5014,0.5011,0.5009,0.5003,0.5001,0.4998,0.4983,0.499,0.4988,0.4986,0.497,0.4967,0.4966,0.4963,0.4957,0.4957,0.4956,0.4956,0.4962,0.4963,0,0,0,0,0,0,0.5031,0.5028,0.5015,0.5014,0.5017,0.5003,0.5,0.4998,0.4983,0.4981,0.4986,0.4985,0.4968,0.4966,0.4965,0.4971,0.4956,0.4956,0.4956,0.4962,0.4963,0.4963,0,0,0,0,0,0,0.5032,0.503,0.5016,0.502,0.5018,0.5003,0.5001,0.4998,0.4996,0.4981,0.4978,0.4987,0.4967,0.4966,0.4965,0.497,0.4956,0.4956,0.4962,0.4962,0.4963,0.4983,0,0,0,0,0,0,0.5032,0.5031,0.5034,0.502,0.5018,0.5016,0.5001,0.4998,0.4995,0.4993,0.498,0.4978,0.4967,0.4965,0.4964,0.4969,0.4955,0.4961,0.4962,0.4963,0.4982,0.4984,0.4986,0,0,0,0,0,0.5033,0.5041,0.5034,0.5033,0.5021,0.5017,0.5015,0.5003,0.4996,0.4998,0.4988,0.4978,0.4969,0.4965,0.4964,0.4969,0.4961,0.4962,0.4963,0.4981,0.4983,0.4986,0,0,0,0,0,0,0.5055,0.5039,0.5031,0.5035,0.5027,0.5013,0.5016,0.5006,0.5001,0.4999,0.4984,0.4981,0.4981,0.4975,0.4971,0.4973,0.4963,0.4964,0.4978,0.498,0.4982,0.4984,0.4955,0,0,0,0,0,0.506,0.5058,0.5044,0.5048,0.5045,0.5031,0.5029,0.5019,0.5011,0.5008,0.4998,0.499,0.4985,0.4982,0.4977,0.498,0.4976,0.4983,0.4985,0.4987,0.4987,0.4987,0.4989,0.4966,0.4966,0.4966,0,0,0.5071,0.5062,0.5062,0.5052,0.5045,0.5043,0.5028,0.5027,0.5025,0.5007,0.5006,0.4998,0.4988,0.4989,0.4988,0.4983,0.4993,0.4988,0.4989,0.4989,0.4988,0.499,0.4992,0.4967,0.4966,0.4966,0,0,0.5089,0.5083,0.5085,0.5078,0.5067,0.5058,0.5058,0.5045,0.5039,0.5037,0.5024,0.5021,0.5013,0.5006,0.5001,0.5015,0.5005,0.5013,0.5025,0.5025,0.5026,0.5028,0.5031,0.5033,0.5014,0.5014,0.5014,0,0.5104,0.51,0.5087,0.5086,0.5081,0.5065,0.5067,0.506,0.5049,0.5046,0.504,0.5029,0.5021,0.5019,0.5022,0.5019,0.5018,0.5015,0.5027,0.5029,0.503,0.5033,0.5034,0.5015,0.5015,0.5015,0.5015,0,0.5118,0.5116,0.5118,0.5107,0.5103,0.5103,0.5089,0.5086,0.5077,0.5068,0.5065,0.5055,0.5046,0.5045,0.5037,0.5041,0.5038,0.503,0.502,0.5033,0.5036,0.5037,0.5017,0.5016,0.5016,0.5016,0,0,0.5151,0.5131,0.5132,0.5126,0.5113,0.511,0.5109,0.51,0.5098,0.509,0.5088,0.5081,0.5072,0.5067,0.5057,0.5057,0.5066,0.5048,0.5048,0.5051,0.5069,0.5075,0.5077,0.506,0.506,0.506,0.507,0,0.5166,0.5163,0.515,0.515,0.5147,0.5131,0.5129,0.512,0.5111,0.5106,0.5096,0.5091,0.5081,0.5078,0.5077,0.5066,0.507,0.5065,0.5056,0.5056,0.5059,0.5078,0.5085,0.5095,0.5071,0.5071,0.5071,0,0.5183,0.5176,0.5176,0.5161,0.5159,0.5158,0.5149,0.5145,0.5134,0.5127,0.512,0.5109,0.5105,0.5096,0.509,0.5087,0.5082,0.5076,0.5076,0.5074,0.5064,0.5077,0.5098,0.5099,0.5073,0.5073,0.5073,0,0.5206,0.5196,0.5194,0.519,0.5172,0.5172,0.5165,0.5153,0.5148,0.514,0.5136,0.5127,0.5122,0.5115,0.5101,0.5096,0.5097,0.5086,0.509,0.509,0.5091,0.5091,0.5111,0.5089,0.5089,0.5089,0.5089,0,0.5224,0.5224,0.5204,0.5203,0.5202,0.5186,0.5186,0.5177,0.5167,0.5163,0.5148,0.5145,0.5127,0.5121,0.511,0.5106,0.5104,0.5098,0.5095,0.5099,0.5099,0.5095,0.5094,0.5089,0.5089,0.5089,0.5089,0,0.5248,0.5235,0.5232,0.5215,0.5211,0.5211,0.5197,0.5194,0.5184,0.5179,0.5177,0.5161,0.5153,0.5138,0.5126,0.5119,0.5117,0.5112,0.512,0.5118,0.5122,0.5122,0.514,0.5141,0.512,0.512,0.512,0,0.5261,0.526,0.5244,0.524,0.5233,0.5228,0.5222,0.5207,0.5202,0.5188,0.5187,0.5178,0.517,0.5158,0.5144,0.5135,0.5129,0.5136,0.5128,0.5131,0.5128,0.5128,0.5127,0.5138,0.5138,0.5138,0.5139,0,0.5283,0.5276,0.5269,0.526,0.5254,0.5246,0.5237,0.5235,0.5216,0.5211,0.5203,0.5197,0.5184,0.5175,0.5163,0.5154,0.5143,0.5141,0.5141,0.5145,0.515,0.5146,0.5125,0.5141,0.5141,0.5141,0.5141,0.514,0.5301,0.53,0.5287,0.528,0.5271,0.5263,0.5259,0.5248,0.5241,0.5229,0.522,0.5212,0.5199,0.5182,0.5174,0.5167,0.5162,0.5162,0.5162,0.5162,0.5164,0.5151,0.5165,0.5165,0.5165,0.5164,0.5164,0,0.5322,0.5313,0.5306,0.5294,0.5287,0.5277,0.5266,0.5262,0.5255,0.5244,0.5236,0.5225,0.5216,0.5201,0.519,0.5187,0.5181,0.5185,0.5184,0.5182,0.5169,0.517,0.5189,0.5189,0.5189,0.5189,0.5189,0.5189,0.5332,0.5329,0.532,0.5311,0.5302,0.5294,0.5288,0.528,0.5271,0.526,0.5252,0.5242,0.5229,0.5217,0.5207,0.5203,0.5199,0.5204,0.5198,0.5186,0.5183,0.5181,0.5182,0.5203,0.5203,0.5211,0.5211,0.5211]}]]